KJ4RDP-13 Weather Reports


Display with metric or nautical units.
time (UTC)temp
F
wind
direction
speed
MPH
gust
MPH
rain 1hr
in
rain 24hr
in
rain mn
in
humidity
%
barometer
mb
20260508204454 65 189 3.0 3.0 0.00 0.00 0.00 63 1013.5
20260508203949 65 203 4.0 5.0 0.00 0.00 0.00 65 1013.8
20260508203446 65 206 2.0 2.0 0.00 0.00 0.00 66 1013.8
20260508202941 65 169 1.0 1.0 0.00 0.00 0.00 63 1013.8
20260508202439 65 211 4.0 6.0 0.00 0.00 0.00 63 1013.8
20260508201936 65 263 3.0 3.0 0.00 0.00 0.00 62 1013.8
20260508201433 65 173 1.0 1.0 0.00 0.00 0.00 61 1013.8
20260508200929 64 261 4.0 5.0 0.00 0.00 0.00 61 1013.8
20260508200427 65 257 4.0 5.0 0.00 0.00 0.00 61 1013.8
20260508195921 64 189 1.0 1.0 0.00 0.00 0.00 61 1014.2
20260508195419 64 202 3.0 3.0 0.00 0.00 0.00 64 1014.2
20260508194915 64 180 5.0 7.0 0.00 0.00 0.00 63 1014.2
20260508194412 64 178 5.0 7.0 0.00 0.00 0.00 66 1014.6
20260508193909 64 176 7.0 9.0 0.00 0.00 0.00 63 1014.6
20260508193406 64 164 5.0 8.0 0.00 0.00 0.00 66 1014.6
20260508192902 65 130 4.0 5.0 0.00 0.00 0.00 60 1014.6
20260508192359 64 227 3.0 3.0 0.00 0.00 0.00 61 1014.6
20260508191856 64 229 1.0 2.0 0.00 0.00 0.00 62 1014.6
20260508191354 63 180 4.0 5.0 0.00 0.00 0.00 64 1014.6
20260508190850 63 100 3.0 5.0 0.00 0.00 0.00 62 1014.6
20260508190347 63 173 3.0 5.0 0.00 0.00 0.00 64 1014.9
20260508185843 63 222 3.0 5.0 0.00 0.00 0.00 64 1014.9
20260508185341 65 242 3.0 3.0 0.00 0.00 0.00 65 1015.2
20260508184838 65 179 6.0 8.0 0.00 0.00 0.00 63 1014.9
20260508184336 64 164 5.0 7.0 0.00 0.00 0.00 63 1014.9
20260508183832 65 175 8.0 11.0 0.00 0.00 0.00 62 1015.2
20260508183329 66 305 6.0 8.0 0.00 0.00 0.00 56 1015.2
20260508182824 62 217 1.0 1.0 0.00 0.00 0.00 64 1015.2
20260508182321 62 221 8.0 9.0 0.00 0.00 0.00 64 1015.7
20260508181817 61 156 7.0 9.0 0.00 0.00 0.00 67 1015.7
20260508181314 61 137 5.0 6.0 0.00 0.00 0.00 65 1015.7
20260508180811 61 178 4.0 6.0 0.00 0.00 0.00 66 1015.7
20260508180308 62 137 4.0 6.0 0.00 0.00 0.00 66 1015.2
20260508175804 62 277 2.0 3.0 0.00 0.00 0.00 64 1015.7
20260508175301 61 172 7.0 8.0 0.00 0.00 0.00 66 1015.7
20260508174759 62 163 9.0 10.0 0.00 0.00 0.00 65 1015.7
20260508174256 64 169 8.0 9.0 0.00 0.00 0.00 62 1015.7
20260508173753 64 175 2.0 2.0 0.00 0.00 0.00 58 1015.7
20260508173249 63 186 0.0 0.0 0.00 0.00 0.00 62 1016.0
20260508172745 62 176 6.0 9.0 0.00 0.00 0.00 60 1016.0
20260508172242 62 160 3.0 3.0 0.00 0.00 0.00 60 1015.7
20260508171739 62 283 4.0 5.0 0.00 0.00 0.00 59 1016.0
20260508171235 63 267 0.0 0.0 0.00 0.00 0.00 56 1016.0
20260508170732 65 149 4.0 6.0 0.00 0.00 0.00 56 1016.0
20260508170230 64 174 0.0 0.0 0.00 0.00 0.00 54 1016.4
20260508165727 65 150 2.0 5.0 0.00 0.00 0.00 56 1016.0
20260508165224 64 196 0.0 0.0 0.00 0.00 0.00 54 1016.4
20260508164720 63 295 2.0 5.0 0.00 0.00 0.00 62 1016.7
20260508164216 62 313 3.0 3.0 0.00 0.00 0.00 56 1016.4
20260508163715 60 318 2.0 3.0 0.00 0.00 0.00 59 1016.7
20260508163212 62 267 3.0 3.0 0.00 0.00 0.00 59 1016.7
20260508162707 64 337 1.0 1.0 0.00 0.00 0.00 56 1016.4
20260508162205 63 88 0.0 0.0 0.00 0.00 0.00 57 1016.7
20260508161702 61 196 0.0 0.0 0.00 0.00 0.00 61 1016.7
20260508161159 62 109 1.0 2.0 0.00 0.00 0.00 57 1016.7
20260508160657 62 44 3.0 3.0 0.00 0.00 0.00 59 1017.1
20260508160155 62 54 2.0 2.0 0.00 0.00 0.00 55 1017.1
20260508155651 62 203 2.0 2.0 0.00 0.00 0.00 57 1017.1
20260508155148 63 315 5.0 6.0 0.00 0.00 0.00 55 1017.1
20260508154645 62 52 0.0 1.0 0.00 0.00 0.00 58 1017.1
20260508154142 61 288 0.0 0.0 0.00 0.00 0.00 63 1017.5
20260508153639 61 6 2.0 3.0 0.00 0.00 0.00 63 1017.5
20260508153136 60 358 0.0 0.0 0.00 0.00 0.00 65 1017.1
20260508152632 61 42 7.0 8.0 0.00 0.00 0.00 65 1017.5
20260508152127 60 248 0.0 0.0 0.00 0.00 0.00 69 1017.5
20260508151625 59 305 3.0 3.0 0.00 0.00 0.00 66 1017.5
20260508151121 59 263 2.0 2.0 0.00 0.00 0.00 68 1017.5
20260508150618 60 174 4.0 6.0 0.00 0.00 0.00 70 1017.5
20260508150115 59 193 3.0 3.0 0.00 0.00 0.00 66 1017.5
20260508145611 61 40 2.0 2.0 0.00 0.00 0.00 66 1017.1
20260508145108 60 48 2.0 2.0 0.00 0.00 0.00 64 1017.5
20260508144606 58 48 0.0 0.0 0.00 0.00 0.00 72 1017.5
20260508144103 57 121 0.0 1.0 0.00 0.00 0.00 69 1017.5
20260508143600 57 178 1.0 1.0 0.00 0.00 0.00 72 1017.5
20260508143056 57 225 1.0 1.0 0.00 0.00 0.00 74 1017.5
20260508142553 59 83 1.0 1.0 0.00 0.00 0.00 74 1017.5
20260508142050 60 57 0.0 1.0 0.00 0.00 0.00 71 1017.5
20260508141547 59 318 0.0 0.0 0.00 0.00 0.00 73 1017.8
20260508141044 57 326 1.0 1.0 0.00 0.00 0.00 77 1017.5
20260508140541 57 69 0.0 1.0 0.00 0.00 0.00 77 1017.8
20260508140038 55 97 1.0 2.0 0.00 0.00 0.00 77 1017.8
20260508135533 55 96 2.0 2.0 0.00 0.00 0.00 82 1017.8
20260508135030 55 82 3.0 3.0 0.00 0.00 0.00 80 1017.5
20260508134527 56 66 1.0 2.0 0.00 0.00 0.00 82 1017.8
20260508134024 54 66 0.0 0.0 0.00 0.00 0.00 82 1017.8
20260508133520 55 173 4.0 5.0 0.00 0.00 0.00 80 1017.8
20260508133018 53 235 1.0 1.0 0.00 0.00 0.00 85 1017.8
20260508132516 53 236 2.0 2.0 0.00 0.00 0.00 86 1017.8
20260508132012 54 237 0.0 0.0 0.00 0.00 0.00 83 1017.8
20260508131507 53 237 0.0 0.0 0.00 0.00 0.00 85 1017.8
20260508131004 53 237 0.0 0.0 0.00 0.00 0.00 86 1017.8
20260508130501 55 237 2.0 2.0 0.00 0.00 0.00 83 1017.8
20260508125956 54 294 0.0 0.0 0.00 0.00 0.00 83 1017.8
20260508125453 53 295 0.0 0.0 0.00 0.00 0.00 85 1017.8
20260508124951 53 295 0.0 0.0 0.00 0.00 0.00 86 1017.5
20260508124449 52 299 0.0 0.0 0.00 0.00 0.00 88 1017.8
20260508123946 52 303 0.0 0.0 0.00 0.00 0.00 89 1017.5
20260508123445 51 302 0.0 0.0 0.00 0.00 0.00 93 1017.5
20260508122940 49 302 0.0 0.0 0.00 0.00 0.00 95 1017.5
20260508122438 50 304 0.0 0.0 0.00 0.00 0.00 97 1017.5
20260508121934 49 205 0.0 0.0 0.00 0.00 0.00 99 1017.5
20260508121433 48 205 0.0 0.0 0.00 0.00 0.00 99 1017.5
20260508120930 46 205 0.0 0.0 0.00 0.00 0.00 99 1017.5
20260508120428 46 205 0.0 0.0 0.00 0.00 0.00 99 1017.5
20260508115925 46 205 0.0 0.0 0.00 0.00 0.00 99 1017.5
20260508115423 47 205 0.0 0.0 0.00 0.00 0.00 99 1017.1
20260508114919 47 205 0.0 0.0 0.00 0.00 0.00 99 1017.5
20260508114416 47 205 0.0 0.0 0.00 0.00 0.00 99 1017.1
20260508113913 46 205 0.0 0.0 0.00 0.00 0.00 99 1017.1
20260508113411 45 205 0.0 0.0 0.00 0.00 0.00 99 1016.7
20260508112908 43 205 0.0 0.0 0.00 0.00 0.00 99 1016.7
20260508112404 43 205 0.0 0.0 0.00 0.00 0.00 99 1016.7
20260508111901 42 205 0.0 0.0 0.00 0.00 0.00 99 1016.4
20260508111358 42 205 0.0 0.0 0.00 0.00 0.00 99 1016.4
20260508110855 42 205 0.0 0.0 0.00 0.00 0.00 99 1016.7
20260508110353 42 286 0.0 0.0 0.00 0.00 0.00 99 1016.4
20260508105852 42 171 0.0 0.0 0.00 0.00 0.00 99 1016.4
20260508105349 42 171 0.0 0.0 0.00 0.00 0.00 99 1016.4
20260508104847 42 171 0.0 0.0 0.00 0.00 0.00 99 1016.4
20260508104343 42 171 0.0 0.0 0.00 0.00 0.00 99 1016.4
20260508103841 42 171 0.0 0.0 0.00 0.00 0.00 99 1016.4
20260508103337 42 171 0.0 0.0 0.00 0.00 0.00 99 1016.4
20260508102835 42 171 0.0 0.0 0.00 0.00 0.00 99 1016.0
20260508102333 42 171 0.0 0.0 0.00 0.00 0.00 99 1016.0
20260508101830 42 171 0.0 0.0 0.00 0.00 0.00 99 1016.0
20260508101327 41 171 0.0 0.0 0.00 0.00 0.00 99 1016.0
20260508100825 41 170 0.0 0.0 0.00 0.00 0.00 99 1015.7
20260508100323 42 171 0.0 0.0 0.00 0.00 0.00 99 1015.7
20260508095818 42 171 0.0 0.0 0.00 0.00 0.00 99 1015.7
20260508095316 42 171 0.0 0.0 0.00 0.00 0.00 99 1015.7
20260508094813 42 171 0.0 0.0 0.00 0.00 0.00 99 1015.2
20260508094310 42 171 0.0 0.0 0.00 0.00 0.00 99 1015.2
20260508093807 42 170 0.0 0.0 0.00 0.00 0.00 99 1015.2
20260508093305 42 171 0.0 0.0 0.00 0.00 0.00 99 1015.2
20260508092802 42 171 0.0 0.0 0.00 0.00 0.00 99 1015.7
20260508092300 41 171 0.0 0.0 0.00 0.00 0.00 99 1015.7
20260508091758 41 171 0.0 0.0 0.00 0.00 0.00 99 1015.7
20260508091254 41 171 0.0 0.0 0.00 0.00 0.00 99 1015.2
20260508090752 41 170 0.0 0.0 0.00 0.00 0.00 99 1015.2
20260508090250 42 171 0.0 0.0 0.00 0.00 0.00 99 1015.2
20260508085745 42 170 0.0 0.0 0.00 0.00 0.00 99 1015.2
20260508085242 42 170 0.0 0.0 0.00 0.00 0.00 99 1015.2
20260508084738 42 171 0.0 0.0 0.00 0.00 0.00 99 1015.2
20260508084236 42 170 0.0 0.0 0.00 0.00 0.00 99 1015.2
20260508083733 42 171 0.0 0.0 0.00 0.00 0.00 99 1014.9
20260508083231 43 171 0.0 0.0 0.00 0.00 0.00 99 1014.9
20260508082725 43 171 0.0 0.0 0.00 0.00 0.00 99 1014.9
20260508082224 43 171 0.0 0.0 0.00 0.00 0.00 99 1014.9
20260508081721 43 171 0.0 0.0 0.00 0.00 0.00 99 1014.6
20260508081217 43 170 0.0 0.0 0.00 0.00 0.00 99 1014.6
20260508080714 43 171 0.0 0.0 0.00 0.00 0.00 99 1014.9
20260508080212 44 171 0.0 0.0 0.00 0.00 0.00 99 1014.6
20260508075708 44 171 0.0 0.0 0.00 0.00 0.00 99 1014.6
20260508075206 44 171 0.0 0.0 0.00 0.00 0.00 99 1014.6
20260508074703 44 171 0.0 0.0 0.00 0.00 0.00 99 1014.6
20260508074200 44 170 0.0 0.0 0.00 0.00 0.00 99 1014.6
20260508073657 44 170 0.0 0.0 0.00 0.00 0.00 99 1014.6
20260508073155 45 170 0.0 0.0 0.00 0.00 0.00 99 1014.6
20260508072650 45 171 0.0 0.0 0.00 0.00 0.00 99 1014.6
20260508072148 44 172 1.0 2.0 0.00 0.00 0.00 99 1014.6
20260508071645 44 173 0.0 0.0 0.00 0.00 0.00 99 1014.6
20260508071144 44 173 0.0 0.0 0.00 0.00 0.00 99 1014.6
20260508070641 45 173 0.0 0.0 0.00 0.00 0.00 99 1014.2
20260508070139 45 173 0.0 0.0 0.00 0.00 0.00 99 1014.2
20260508065636 45 173 0.0 0.0 0.00 0.00 0.00 99 1014.2
20260508065134 45 173 0.0 0.0 0.00 0.00 0.00 99 1014.2
20260508064631 46 173 0.0 0.0 0.00 0.00 0.00 99 1014.2
20260508064129 46 173 0.0 0.0 0.00 0.00 0.00 99 1014.2
20260508063626 46 173 0.0 0.0 0.00 0.00 0.00 99 1014.2
20260508063125 46 173 0.0 0.0 0.00 0.00 0.00 99 1014.2
20260508062621 47 173 0.0 0.0 0.00 0.00 0.00 98 1014.2
20260508062118 47 173 3.0 3.0 0.00 0.00 0.00 99 1014.2
20260508061615 47 179 1.0 2.0 0.00 0.00 0.00 99 1014.2
20260508061113 47 179 0.0 1.0 0.00 0.00 0.00 98 1014.2
20260508060609 48 179 0.0 0.0 0.00 0.00 0.00 97 1014.2
20260508060107 48 179 0.0 0.0 0.00 0.00 0.00 97 1014.2
20260508055602 48 179 2.0 2.0 0.00 0.00 0.00 97 1014.2
20260508055059 48 179 0.0 0.0 0.00 0.00 0.00 97 1014.2
20260508054556 48 179 0.0 0.0 0.00 0.00 0.00 98 1014.2
20260508054053 48 182 0.0 0.0 0.00 0.00 0.00 98 1014.2
20260508053549 47 181 1.0 1.0 0.00 0.00 0.00 99 1014.6
20260508053048 47 182 0.0 0.0 0.00 0.00 0.00 99 1014.2
20260508052545 47 182 2.0 2.0 0.00 0.00 0.00 98 1014.2
20260508052042 48 183 3.0 3.0 0.00 0.00 0.00 98 1014.2
20260508051538 48 183 0.0 0.0 0.00 0.00 0.00 98 1014.6
20260508051033 48 183 1.0 1.0 0.00 0.00 0.00 97 1014.6
20260508050530 47 181 3.0 3.0 0.00 0.00 0.00 99 1014.2
20260508050027 47 181 1.0 2.0 0.00 0.00 0.00 99 1014.2
20260508045523 48 188 4.0 5.0 0.00 0.00 0.00 99 1014.2
20260508045021 48 190 2.0 2.0 0.00 0.00 0.00 98 1014.2
20260508044518 48 189 2.0 2.0 0.00 0.00 0.00 97 1014.2
20260508044014 48 191 0.0 1.0 0.00 0.00 0.00 97 1013.8
20260508043511 48 191 1.0 1.0 0.00 0.00 0.00 98 1014.2
20260508043008 47 184 0.0 1.0 0.00 0.00 0.00 98 1014.2
20260508042505 47 184 3.0 3.0 0.00 0.00 0.00 99 1013.8
20260508042002 47 185 2.0 2.0 0.00 0.00 0.00 98 1014.2
20260508041458 48 184 0.0 1.0 0.00 0.00 0.00 97 1013.8
20260508040955 48 219 3.0 3.0 0.00 0.00 0.00 98 1014.2
20260508040452 48 234 1.0 2.0 0.00 0.00 0.00 97 1014.2
20260508035950 48 234 1.0 1.0 0.00 0.38 0.38 97 1014.2
20260508035446 48 234 2.0 2.0 0.00 0.38 0.38 96 1014.2
20260508034943 49 235 1.0 2.0 0.00 0.38 0.38 94 1013.8
20260508034441 49 235 0.0 0.0 0.00 0.38 0.38 93 1014.2
20260508033937 49 249 2.0 2.0 0.00 0.38 0.38 93 1014.2
20260508033436 50 250 0.0 1.0 0.00 0.38 0.38 92 1014.2
20260508032932 50 241 3.0 3.0 0.00 0.38 0.38 92 1014.2
20260508032430 51 242 2.0 2.0 0.00 0.38 0.38 90 1014.6
20260508031926 51 234 2.0 2.0 0.00 0.38 0.38 89 1014.2
20260508031424 51 236 4.0 5.0 0.00 0.38 0.38 90 1013.8
20260508030920 51 244 2.0 2.0 0.00 0.38 0.38 88 1013.8
20260508030417 51 285 2.0 3.0 0.00 0.38 0.38 88 1013.8
20260508025914 51 24 1.0 1.0 0.00 0.38 0.38 89 1014.2
20260508025410 52 17 1.0 3.0 0.00 0.38 0.38 88 1014.2
20260508024907 52 323 6.0 7.0 0.00 0.38 0.38 87 1014.2
20260508024404 52 249 4.0 6.0 0.00 0.38 0.38 87 1013.8
20260508023901 51 284 3.0 3.0 0.00 0.38 0.38 88 1013.8
20260508023358 51 299 5.0 6.0 0.00 0.38 0.38 88 1013.8
20260508022854 50 336 5.0 6.0 0.00 0.38 0.38 90 1013.8
20260508022350 50 11 3.0 3.0 0.00 0.38 0.38 89 1013.5
20260508021847 51 263 1.0 1.0 0.00 0.38 0.38 90 1013.5
20260508021343 51 349 1.0 1.0 0.00 0.38 0.38 87 1013.5
20260508020839 51 3 2.0 2.0 0.00 0.38 0.38 88 1013.8
20260508020337 51 252 3.0 3.0 0.00 0.38 0.38 87 1013.5
20260508015834 52 49 0.0 1.0 0.00 0.38 0.38 84 1013.5
20260508015332 52 68 1.0 1.0 0.00 0.38 0.38 85 1013.8
20260508014828 51 88 2.0 3.0 0.00 0.38 0.38 85 1013.5
20260508014326 51 280 4.0 5.0 0.00 0.38 0.38 89 1013.1
20260508013820 51 271 2.0 2.0 0.00 0.38 0.38 88 1013.1
20260508013317 51 271 1.0 1.0 0.00 0.38 0.38 86 1013.1
20260508012815 52 269 0.0 0.0 0.00 0.38 0.38 84 1013.1
20260508012312 52 308 3.0 3.0 0.00 0.38 0.38 83 1013.1
20260508011809 52 242 0.0 0.0 0.00 0.38 0.38 82 1012.8
20260508011307 52 268 0.0 1.0 0.00 0.38 0.38 84 1012.8
20260508010804 52 274 1.0 2.0 0.00 0.38 0.38 82 1012.8
20260508010302 52 283 3.0 5.0 0.00 0.38 0.38 83 1013.1
20260508005758 52 197 1.0 1.0 0.00 0.38 0.38 83 1012.8
20260508005255 53 256 1.0 1.0 0.00 0.38 0.38 82 1012.8
20260508004750 53 68 0.0 1.0 0.00 0.38 0.38 78 1012.8
20260508004247 53 316 1.0 2.0 0.00 0.38 0.38 81 1012.3
20260508003744 53 252 2.0 2.0 0.00 0.38 0.38 81 1012.8
20260508003242 53 268 1.0 2.0 0.00 0.38 0.38 84 1012.3
20260508002738 54 348 3.0 3.0 0.00 0.38 0.38 82 1012.8
20260508002235 53 321 2.0 3.0 0.00 0.38 0.38 80 1012.8
20260508001731 54 240 6.0 8.0 0.00 0.38 0.38 81 1012.8
20260508001226 54 245 1.0 2.0 0.00 0.38 0.38 80 1012.3
20260508000723 54 11 2.0 2.0 0.00 0.38 0.38 80 1012.3
20260508000221 54 323 0.0 1.0 0.00 0.38 0.38 80 1012.3
20260507235716 54 353 0.0 0.0 0.00 0.38 0.38 81 1012.0
20260507235214 55 294 5.0 7.0 0.00 0.38 0.38 80 1012.3
20260507234711 55 20 1.0 1.0 0.00 0.38 0.38 80 1012.0
20260507234207 55 95 1.0 1.0 0.00 0.38 0.38 80 1012.3
20260507233704 56 311 8.0 10.0 0.00 0.38 0.38 80 1012.3
20260507233202 56 272 6.0 7.0 0.00 0.38 0.38 79 1012.0
20260507232659 57 241 3.0 5.0 0.00 0.38 0.38 79 1012.0
20260507232156 58 171 1.0 1.0 0.00 0.38 0.38 79 1012.0
20260507231653 59 351 1.0 1.0 0.00 0.38 0.38 76 1012.0
20260507231150 59 250 1.0 2.0 0.00 0.38 0.38 79 1012.0
20260507230646 59 317 5.0 7.0 0.00 0.38 0.38 76 1012.0
20260507230144 58 233 3.0 3.0 0.00 0.38 0.38 79 1012.0
20260507225643 58 140 0.0 1.0 0.00 0.38 0.38 79 1012.0
20260507225140 59 304 1.0 2.0 0.00 0.38 0.38 77 1012.0
20260507224635 59 296 3.0 5.0 0.00 0.38 0.38 77 1011.7
20260507224132 59 260 5.0 6.0 0.00 0.38 0.38 77 1011.7
20260507223628 59 282 8.0 11.0 0.00 0.38 0.38 76 1011.7
20260507223125 60 148 1.0 1.0 0.00 0.38 0.38 78 1011.7
20260507222622 60 255 4.0 6.0 0.00 0.38 0.38 76 1011.3
20260507222119 59 320 3.0 5.0 0.00 0.38 0.38 78 1011.0
20260507221615 59 250 9.0 13.0 0.00 0.38 0.38 78 1011.0
20260507221112 59 323 3.0 3.0 0.00 0.38 0.38 79 1011.0
20260507220609 59 353 3.0 6.0 0.00 0.38 0.38 81 1011.0
20260507220107 58 330 11.0 14.0 0.00 0.38 0.38 82 1011.0
20260507215602 58 3 5.0 7.0 0.00 0.38 0.38 82 1011.0
20260507215101 58 291 6.0 8.0 0.00 0.38 0.38 81 1011.0
20260507214558 59 357 3.0 5.0 0.00 0.38 0.38 82 1011.0
20260507214053 59 45 2.0 5.0 0.00 0.38 0.38 81 1010.5
20260507213549 60 71 2.0 5.0 0.00 0.38 0.38 81 1010.5
20260507213047 61 349 2.0 2.0 0.00 0.38 0.38 80 1010.5
20260507212543 60 15 2.0 5.0 0.00 0.38 0.38 80 1010.2
20260507212040 61 283 2.0 3.0 0.00 0.38 0.38 79 1010.2
20260507211537 61 349 2.0 3.0 0.00 0.38 0.38 80 1010.2
20260507211032 62 314 4.0 6.0 0.00 0.38 0.38 78 1010.2
20260507210530 62 2 2.0 3.0 0.00 0.38 0.38 79 1010.2
20260507210027 65 239 4.0 9.0 0.00 0.38 0.38 75 1009.9
20260507205524 65 329 2.0 3.0 0.00 0.38 0.38 75 1009.9
20260507205020 64 285 0.0 0.0 0.00 0.38 0.38 77 1009.9